Location: Arboyeti
(42.1122°N, 44.6017°E)
Time: 15:14:04
(UTC+00:00)

Cosmos 2219 - Pass Details

Date: 19 April 2021
Orbit: 834 x 859 km, 71.1° (Epoch: 07 May)

Event Time Altitude Azimuth Distance (km) Brightness Sun altitude
Exits shadow 18:08:05 20° 202° (SSW) 1,846 4.8 -23.4°
Maximum altitude 18:12:05 89° 125° (SE) 840 3.1 -24.0°
Drops below altitude 10° 18:17:44 10° 24° (NNE) 2,455 5.8 -24.7°
Sets 18:20:11 0° 25° (NNE) 3,395 6.6 -25.0°
